Date,TemperatureHighF,TemperatureAvgF,TemperatureLowF,DewpointHighF,DewpointAvgF,DewpointLowF,HumidityHigh,HumidityAvg,HumidityLow,PressureMaxIn,PressureMinIn,WindSpeedMaxMPH,WindSpeedAvgMPH,GustSpeedMaxMPH,PrecipitationSumIn
2013-1-1,14,10,5,2,-3,-5,73,57,41,30.83,30.61,27,7,33,0.00
2013-1-2,15,9,5,0,-2,-6,76,59,46,30.99,30.81,24,4,30,0.00
2013-1-3,28,16,4,-6,-9,-17,61,35,13,31.03,30.70,10,2,17,0.00
2013-1-4,37,28,22,9,3,-7,41,33,26,30.70,30.29,7,2,10,0.00
2013-1-5,30,26,20,0,-5,-19,35,25,12,30.61,30.29,25,7,32,0.00
2013-1-6,47,35,26,-3,-20,-41,20,9,3,30.59,30.14,8,2,16,0.00
2013-1-7,42,33,28,-3,-9,-19,22,15,7,30.15,30.01,16,4,38,0.00
2013-1-8,34,29,25,15,9,-11,55,44,13,30.52,29.97,26,6,41,0.00
2013-1-9,48,37,28,10,6,-2,43,28,14,30.58,30.18,11,3,23,0.00
2013-1-10,45,37,27,7,-3,-12,41,19,10,30.18,29.56,9,2,14,0.00
2013-1-11,27,15,2,16,2,-10,79,57,34,30.09,29.37,28,6,39,0.03
2013-1-12,9,2,-4,-3,-10,-14,76,57,34,30.50,30.09,22,3,27,0.00
2013-1-13,7,-1,-8,-4,-10,-15,78,64,43,30.67,30.48,9,1,14,0.00
2013-1-14,10,1,-6,-1,-9,-16,77,62,46,30.74,30.61,22,2,28,0.00
2013-1-15,24,17,-1,11,2,-16,61,51,43,30.74,30.63,23,6,31,0.00
2013-1-16,37,27,19,16,14,8,70,57,40,30.71,30.56,23,3,29,0.00
2013-1-17,40,31,23,13,7,-1,60,37,22,30.71,30.50,19,2,27,0.00
2013-1-18,36,32,29,3,0,-4,30,25,21,30.50,30.33,35,12,49,0.00
2013-1-19,41,33,28,1,-2,-11,30,22,10,30.54,30.26,39,8,53,0.00
2013-1-20,32,29,26,0,-2,-7,31,25,17,30.41,30.33,17,6,26,0.00
2013-1-27,38,32,29,16,12,9,46,41,32,29.97,29.91,5,1,10,0.00
2013-1-28,40,28,15,20,14,7,82,59,35,29.90,29.67,17,2,24,0.09
2013-1-29,15,9,3,11,0,-6,82,65,46,30.41,29.84,28,6,34,0.03
2013-1-30,20,14,4,14,6,-5,80,71,57,30.44,30.29,38,12,56,0.01
2013-1-31,27,23,20,14,11,6,78,61,40,30.49,30.26,43,15,60,0.00